Pittsburgh, PA

11:03 AM EST on January 19, 2018 (GMT -0500)
Pittsburgh International

Weather History for KPIT - January, 2013

Change the Weather History Date:

Friday, January 18, 2013

  Actual Average Record
Temperature  
Mean Temperature 25 °F 28 °F  
Max Temperature 33 °F 36 °F 69 °F (1929)
Min Temperature 16 °F 21 °F -16 °F (1994)
Degree Days  
Heating Degree Days 40 37  
Month to date heating degree days 559 662  
Since 1 July heating degree days 2630 2837  
Cooling Degree Days 0 0  
Month to date cooling degree days 0 0  
Year to date cooling degree days 0 0  
Moisture  
Dew Point 14 °F    
Average Humidity 62    
Maximum Humidity 81    
Minimum Humidity 43    
Precipitation  
Precipitation T in 0.09 in 0.71 in (1915)
Month to date precipitation 0.62 1.59  
Year to date precipitation 0.62 1.59  
Snow  
Snow 0.20 in 0.30 in 4.70 in (2009)
Month to date snowfall 2.5 6.5  
Since 1 July snowfall 17.0 17.2  
Snow Depth 1.00 in    
Sea Level Pressure  
Sea Level Pressure 30.39 in    
Wind  
Wind Speed 12 mph (WSW)    
Max Wind Speed 24 mph    
Max Gust Speed 30 mph    
Visibility 9 miles    
Events Snow    
T = Trace of Precipitation, MM = Missing Value Source: NWS Daily Summary

Daily Weather History Graph

Daily Weather History Graph

Search for Another Location

Airport or City:

Trip Planner

Search our weather history database for the weather conditions in past years. The results will help you decide how hot, cold, wet, or windy it might be!

Date:

Astronomy

Jan. 18, 2013 Rise Set
Actual Time 7:40 AM EST 5:22 PM EST
Civil Twilight 7:10 AM EST 5:52 PM EST
Nautical Twilight 6:37 AM EST 6:25 PM EST
Astronomical Twilight 6:04 AM EST 6:58 PM EST
Moon 11:16 AM EST (1/18) 12:13 AM EST (1/18)
Length of Visible Light 10h 41m
Length of Day
9h 41m
Waxing Crescent, 47% of the Moon is Illuminated
Jan 18
Waxing Crescent
Jan 18
First Quarter
Jan 26
Full
Feb 3
Last Quarter
Feb 10
New

Hourly Weather History & Observations

Time (EST) Temp. Windchill Dew Point Humidity Pressure Visibility Wind Dir Wind Speed Gust Speed Precip Events Conditions
12:51 AM 28.9 °F 15.4 °F 19.0 °F 67% 30.23 in 10.0 mi West 21.9 mph 27.6 mph 0.00 in Snow Light Snow
1:51 AM 26.1 °F 12.3 °F 16.0 °F 66% 30.28 in 10.0 mi WNW 19.6 mph 25.3 mph 0.00 in   Partly Cloudy
2:51 AM 25.0 °F 12.2 °F 17.1 °F 72% 30.33 in 7.0 mi WNW 16.1 mph - 0.00 in Snow Light Snow
3:15 AM 24.8 °F 10.0 °F 19.4 °F 80% 30.29 in 1.0 mi NW 21.9 mph 25.3 mph 0.00 in Snow Light Snow
3:32 AM 24.8 °F 11.5 °F 19.4 °F 80% 30.30 in 1.5 mi NW 17.3 mph - 0.00 in Snow Light Snow
3:45 AM 23.0 °F 9.6 °F 17.6 °F 80% 30.30 in 5.0 mi NW 16.1 mph - 0.00 in Snow Light Snow
3:51 AM 23.0 °F 9.2 °F 18.0 °F 81% 30.37 in 5.0 mi NW 17.3 mph - 0.00 in Snow Light Snow
4:36 AM 21.2 °F 7.3 °F 15.8 °F 80% 30.32 in 8.0 mi NW 16.1 mph - 0.00 in Snow Light Snow
4:51 AM 21.0 °F 5.0 °F 10.9 °F 65% 30.42 in 9.0 mi NW 21.9 mph 28.8 mph 0.00 in   Overcast
7:51 AM 17.1 °F 10.0 °F 6.1 °F 62% 30.50 in 10.0 mi West 4.6 mph - N/A   Partly Cloudy
8:51 AM 19.0 °F 13.9 °F 7.0 °F 59% 30.51 in 10.0 mi WNW 3.5 mph - N/A   Partly Cloudy
9:51 AM 21.0 °F 11.4 °F 9.0 °F 60% 30.53 in 10.0 mi WNW 8.1 mph - N/A   Partly Cloudy
10:51 AM 23.0 °F 17.0 °F 9.0 °F 55% 30.53 in 10.0 mi West 4.6 mph - N/A   Scattered Clouds
11:51 AM 25.0 °F 20.7 °F 10.0 °F 53% 30.50 in 10.0 mi West 3.5 mph - N/A   Scattered Clouds
12:51 PM 28.0 °F 20.8 °F 12.0 °F 51% 30.48 in 10.0 mi Variable 6.9 mph - N/A   Scattered Clouds
1:51 PM 28.9 °F 19.8 °F 10.9 °F 47% 30.46 in 10.0 mi SW 10.4 mph - N/A   Scattered Clouds
2:51 PM 30.0 °F 21.7 °F 10.9 °F 45% 30.44 in 10.0 mi SW 9.2 mph - N/A   Scattered Clouds
3:51 PM 30.0 °F 20.5 °F 14.0 °F 51% 30.43 in 10.0 mi SSW 11.5 mph - N/A   Scattered Clouds
4:51 PM 28.9 °F 19.8 °F 15.1 °F 56% 30.43 in 10.0 mi SSW 10.4 mph - N/A   Scattered Clouds
5:51 PM 28.9 °F 21.1 °F 15.1 °F 56% 30.40 in 10.0 mi South 8.1 mph - N/A   Mostly Cloudy
6:51 PM 28.9 °F 19.8 °F 14.0 °F 54% 30.40 in 10.0 mi SSW 10.4 mph - N/A   Scattered Clouds
7:51 PM 28.9 °F 19.2 °F 12.9 °F 51% 30.38 in 10.0 mi SSW 11.5 mph 18.4 mph N/A   Clear
8:51 PM 28.9 °F 18.2 °F 12.9 °F 51% 30.36 in 10.0 mi SSW 13.8 mph - N/A   Partly Cloudy
9:51 PM 30.0 °F 20.5 °F 12.9 °F 49% 30.33 in 10.0 mi SSW 11.5 mph - N/A   Partly Cloudy
10:51 PM 32.0 °F 22.1 °F 14.0 °F 48% 30.30 in 10.0 mi SSW 13.8 mph 21.9 mph N/A   Clear
11:51 PM 33.1 °F 23.0 °F 15.1 °F 48% 30.28 in 10.0 mi SSW 15.0 mph - N/A   Partly Cloudy